South Hill, VA

12:22 AM EST on November 19, 2017 (GMT -0500)
Mecklenburg-Brunswick Regional

Weather History for KAVC - January, 2014

Change the Weather History Date:

Friday, January 24, 2014

  Actual Average (KEMV) Record (KEMV)
Temperature  
Mean Temperature 18 °F -  
Max Temperature 26 °F 50 °F 63 °F (1990)
Min Temperature 10 °F 26 °F 10 °F (2014)
Degree Days  
Heating Degree Days 47    
Moisture  
Dew Point -2 °F    
Average Humidity 42    
Maximum Humidity 57    
Minimum Humidity 24    
Precipitation  
Precipitation 0.00 in - - ()
Sea Level Pressure  
Sea Level Pressure 30.49 in    
Wind  
Wind Speed 5 mph (West)    
Max Wind Speed 10 mph    
Max Gust Speed 16 mph    
Visibility 10 miles    
Events      
Averages and records for this station are not official NWS values.
T = Trace of Precipitation, MM = Missing Value Source: NWS Daily Summary

Daily Weather History Graph

Daily Weather History Graph

Search for Another Location

Airport or City:

Trip Planner

Search our weather history database for the weather conditions in past years. The results will help you decide how hot, cold, wet, or windy it might be!

Date:

Astronomy

Jan. 24, 2014 Rise Set
Actual Time 7:19 AM EST 5:29 PM EST
Civil Twilight 6:52 AM EST 5:56 PM EST
Nautical Twilight 6:20 AM EST 6:28 PM EST
Astronomical Twilight 5:49 AM EST 6:59 PM EST
Moon 12:47 AM EST (1/24) 11:45 AM EST (1/24)
Length of Visible Light 11h 04m
Length of Day
10h 09m
Last Quarter, 45% of the Moon is Illuminated
Jan 24
Last Quarter
Jan 30
New
Feb 6
First Quarter
Feb 14
Full
Feb 22
Last Quarter

Hourly Weather History & Observations

Time (EST) Temp. Windchill Dew Point Humidity Pressure Visibility Wind Dir Wind Speed Gust Speed Precip Events Conditions
12:15 AM 17.6 °F 8.2 °F -0.4 °F 45% 30.49 in 10.0 mi NNW 6.9 mph - N/A   Clear
12:35 AM 17.6 °F 8.2 °F -0.4 °F 45% 30.49 in 10.0 mi NNW 6.9 mph - N/A   Clear
12:55 AM 17.6 °F 8.2 °F -0.4 °F 45% 30.50 in 10.0 mi NNW 6.9 mph - N/A   Clear
1:15 AM 17.6 °F 8.2 °F -2.2 °F 42% 30.49 in 10.0 mi NNW 6.9 mph - N/A   Clear
1:35 AM 17.6 °F - -0.4 °F 45% 30.50 in 10.0 mi Calm Calm - N/A   Clear
1:55 AM 17.6 °F 10.7 °F -2.2 °F 42% 30.51 in 10.0 mi NW 4.6 mph - N/A   Clear
2:15 AM 17.6 °F 9.3 °F -0.4 °F 45% 30.51 in 10.0 mi NNW 5.8 mph - N/A   Clear
2:35 AM 17.6 °F 12.3 °F -0.4 °F 45% 30.52 in 10.0 mi NW 3.5 mph - N/A   Clear
2:55 AM 17.6 °F 9.3 °F -2.2 °F 42% 30.53 in 10.0 mi NW 5.8 mph - N/A   Clear
3:15 AM 15.8 °F 10.2 °F -2.2 °F 45% 30.54 in 10.0 mi NW 3.5 mph - N/A   Clear
3:35 AM 15.8 °F 10.2 °F -2.2 °F 45% 30.54 in 10.0 mi NW 3.5 mph - N/A   Clear
3:55 AM 15.8 °F 8.6 °F -2.2 °F 45% 30.54 in 10.0 mi NW 4.6 mph - N/A   Scattered Clouds
4:15 AM 14.0 °F 8.2 °F -2.2 °F 49% 30.55 in 10.0 mi NW 3.5 mph - N/A   Clear
4:35 AM 14.0 °F 6.5 °F -4.0 °F 45% 30.56 in 10.0 mi NW 4.6 mph - N/A   Clear
4:55 AM 12.2 °F - -2.2 °F 53% 30.56 in 10.0 mi Calm Calm - N/A   Clear
5:15 AM 12.2 °F 4.3 °F -2.2 °F 53% 30.57 in 10.0 mi NW 4.6 mph - N/A   Clear
5:35 AM 12.2 °F 2.9 °F -2.2 °F 53% 30.58 in 10.0 mi NW 5.8 mph - N/A   Clear
5:55 AM 12.2 °F 2.9 °F -2.2 °F 53% 30.59 in 10.0 mi WNW 5.8 mph - N/A   Clear
6:15 AM 12.2 °F - -4.0 °F 48% 30.60 in 10.0 mi Calm Calm - N/A   Clear
6:35 AM 12.2 °F 6.1 °F -4.0 °F 48% 30.60 in 10.0 mi WNW 3.5 mph - N/A   Clear
6:55 AM 12.2 °F - -2.2 °F 53% 30.61 in 10.0 mi Calm Calm - N/A   Clear
7:15 AM 10.4 °F - -4.0 °F 52% 30.61 in 10.0 mi Calm Calm - N/A   Clear
7:35 AM 10.4 °F 4.0 °F -2.2 °F 57% 30.62 in 10.0 mi WNW 3.5 mph - N/A   Clear
7:55 AM 12.2 °F 6.1 °F -2.2 °F 53% 30.63 in 10.0 mi WNW 3.5 mph - N/A   Clear
8:15 AM 12.2 °F 4.3 °F -2.2 °F 53% 30.62 in 10.0 mi NW 4.6 mph - N/A   Clear
8:35 AM 14.0 °F 3.9 °F -2.2 °F 49% 30.63 in 10.0 mi West 6.9 mph - N/A   Clear
8:55 AM 14.0 °F 5.1 °F -4.0 °F 45% 30.63 in 10.0 mi WNW 5.8 mph - N/A   Clear
9:15 AM 15.8 °F 8.6 °F -2.2 °F 45% 30.63 in 10.0 mi NW 4.6 mph - N/A   Clear
9:35 AM 17.6 °F 9.3 °F -2.2 °F 42% 30.63 in 10.0 mi WNW 5.8 mph - N/A   Clear
9:55 AM 17.6 °F 9.3 °F -2.2 °F 42% 30.63 in 10.0 mi WNW 5.8 mph - N/A   Clear
10:15 AM 17.6 °F 10.7 °F -4.0 °F 38% 30.63 in 10.0 mi NNW 4.6 mph - N/A   Clear
10:35 AM 17.6 °F 8.2 °F -2.2 °F 42% 30.63 in 10.0 mi West 6.9 mph - N/A   Clear
10:55 AM 19.4 °F 12.8 °F -4.0 °F 36% 30.61 in 10.0 mi NNE 4.6 mph - N/A   Clear
11:15 AM 19.4 °F - -4.0 °F 36% 30.60 in 10.0 mi Calm Calm - N/A   Clear
11:35 AM 19.4 °F - -4.0 °F 36% 30.58 in 10.0 mi Calm Calm - N/A   Clear
11:55 AM 21.2 °F - -4.0 °F 33% 30.57 in 10.0 mi Calm Calm - N/A   Clear
12:15 PM 21.2 °F - -4.0 °F 33% 30.56 in 10.0 mi Calm Calm - N/A   Clear
12:35 PM 23.0 °F - -4.0 °F 31% 30.54 in 10.0 mi Calm Calm - N/A   Clear
12:55 PM 23.0 °F - -5.8 °F 28% 30.53 in 10.0 mi Calm Calm - N/A   Clear
1:15 PM 24.8 °F 20.5 °F -4.0 °F 28% 30.51 in 10.0 mi SSW 3.5 mph - N/A   Clear
1:35 PM 24.8 °F 17.9 °F -4.0 °F 28% 30.51 in 10.0 mi West 5.8 mph - N/A   Clear
1:55 PM 24.8 °F - -5.8 °F 26% 30.50 in 10.0 mi Calm Calm - N/A   Clear
2:15 PM 26.6 °F 22.6 °F -5.8 °F 24% 30.49 in 10.0 mi NW 3.5 mph - N/A   Clear
2:35 PM 26.6 °F 19.1 °F -4.0 °F 26% 30.48 in 10.0 mi West 6.9 mph - N/A   Clear
2:55 PM 24.8 °F 20.5 °F -5.8 °F 26% 30.48 in 10.0 mi WSW 3.5 mph - N/A   Clear
3:15 PM 26.6 °F 22.6 °F -5.8 °F 24% 30.48 in 10.0 mi NW 3.5 mph - N/A   Clear
3:35 PM 26.6 °F 20.0 °F -5.8 °F 24% 30.47 in 10.0 mi West 5.8 mph - N/A   Clear
3:55 PM 26.6 °F 16.8 °F -2.2 °F 29% 30.47 in 10.0 mi SW 10.4 mph 16.1 mph N/A   Clear
4:15 PM 26.6 °F 19.1 °F -2.2 °F 29% 30.46 in 10.0 mi WSW 6.9 mph - N/A   Clear
4:35 PM 24.8 °F 16.1 °F -5.8 °F 26% 30.45 in 10.0 mi SW 8.1 mph - N/A   Clear
4:55 PM 24.8 °F 16.1 °F -5.8 °F 26% 30.43 in 10.0 mi South 8.1 mph - N/A   Clear
5:15 PM 24.8 °F 19.1 °F -5.8 °F 26% 30.42 in 10.0 mi SSW 4.6 mph - N/A   Clear
5:35 PM 21.2 °F 16.4 °F -5.8 °F 30% 30.41 in 10.0 mi South 3.5 mph - N/A   Clear
5:55 PM 21.2 °F - -5.8 °F 30% 30.41 in 10.0 mi Calm Calm - N/A   Clear
6:15 PM 19.4 °F - -2.2 °F 39% 30.41 in 10.0 mi Calm Calm - N/A   Clear
6:35 PM 19.4 °F - -2.2 °F 39% 30.41 in 10.0 mi Calm Calm - N/A   Clear
6:55 PM 17.6 °F - -2.2 °F 42% 30.40 in 10.0 mi Calm Calm - N/A   Clear
7:15 PM 17.6 °F - -0.4 °F 45% 30.40 in 10.0 mi Calm Calm - N/A   Clear
7:35 PM 17.6 °F - -0.4 °F 45% 30.39 in 10.0 mi Calm Calm - N/A   Clear
7:55 PM 17.6 °F - -0.4 °F 45% 30.38 in 10.0 mi Calm Calm - N/A   Clear
8:15 PM 15.8 °F 8.6 °F -0.4 °F 49% 30.37 in 10.0 mi South 4.6 mph - N/A   Clear
8:35 PM 17.6 °F 10.7 °F -0.4 °F 45% 30.36 in 10.0 mi South 4.6 mph - N/A   Clear
8:55 PM 15.8 °F 6.1 °F 1.4 °F 53% 30.34 in 10.0 mi South 6.9 mph - N/A   Clear
9:15 PM 17.6 °F 8.2 °F 1.4 °F 49% 30.33 in 10.0 mi South 6.9 mph - N/A   Clear
9:35 PM 17.6 °F 9.3 °F 1.4 °F 49% 30.32 in 10.0 mi South 5.8 mph - N/A   Clear
9:55 PM 15.8 °F 6.1 °F 1.4 °F 53% 30.31 in 10.0 mi SSW 6.9 mph - N/A   Clear
10:15 PM 15.8 °F 6.1 °F 1.4 °F 53% 30.30 in 10.0 mi SSW 6.9 mph - N/A   Clear
10:35 PM 17.6 °F 7.3 °F 1.4 °F 49% 30.30 in 10.0 mi South 8.1 mph - N/A   Clear
10:55 PM 15.8 °F 5.1 °F 1.4 °F 53% 30.29 in 10.0 mi South 8.1 mph - N/A   Clear
11:15 PM 17.6 °F 6.4 °F 1.4 °F 49% 30.28 in 10.0 mi South 9.2 mph - N/A   Clear
11:35 PM 17.6 °F 5.7 °F -0.4 °F 45% 30.27 in 10.0 mi South 10.4 mph - N/A   Clear
11:55 PM 17.6 °F 5.7 °F 1.4 °F 49% 30.27 in 10.0 mi South 10.4 mph - N/A   Clear